Location: High Meadows Obseravatory
(40.7417°N, 111.5713°W)
Time: 05:09:17
(UTC-07:00)

X-37B - Visible Passes

Search period start: 29 November 2022 00:00
Search period end: 09 December 2022 00:00
Orbit: 277 x 277 km, 45.0° (Epoch: 01 November)

Date Brightness Start Highest point End Pass type
(mag) Time Alt. Az. Time Alt. Az. Time Alt. Az.
06 Dec 2.0 17:59:32 10° S 18:01:14 17° SE 18:02:05 15° ESE visible
07 Dec 1.1 17:59:36 10° SW 18:01:49 31° SSE 18:02:51 21° ESE visible
08 Dec 0.1 18:00:02 10° SW 18:02:26 61° SSE 18:03:34 26° E visible
